This is the latest recevied weather packets stored in our database for station/object K0KDS. If no packets are shown the sender has not sent any weather packets the latest 10 day(s).
| Time | Temp. | Humidity | Pressure | Rain* | Wind** | Luminosity | Snow |
|---|---|---|---|---|---|---|---|
| 1777712666 | 1.67° C | 81% | 1017.5 hPa | 0 mm | - | - | - |
| 1777712606 | 1.67° C | 80% | 1017.6 hPa | 0 mm | - | - | - |
| 1777711648 | 1.67° C | 81% | 1017.5 hPa | 0 mm | - | - | - |
| 1777710748 | 2.22° C | 79% | 1017.3 hPa | 0 mm | - | - | - |
| 1777709848 | 2.22° C | 78% | 1017.4 hPa | 0 mm | - | - | - |
| 1777708948 | 2.78° C | 77% | 1017.4 hPa | 0 mm | - | - | - |
| 1777708048 | 2.78° C | 77% | 1017.5 hPa | 0 mm | - | - | - |
| 1777707148 | 3.33° C | 76% | 1017.5 hPa | 0 mm | - | - | - |
| 1777706248 | 3.33° C | 75% | 1017.6 hPa | 0 mm | - | - | - |
| 1777705348 | 3.89° C | 75% | 1017.6 hPa | 0 mm | - | - | - |
| 1777704448 | 3.89° C | 74% | 1017.7 hPa | 0 mm | - | - | - |
| 1777703548 | 4.44° C | 74% | 1017.6 hPa | 0 mm | - | - | - |
| 1777702648 | 4.44° C | 74% | 1017.6 hPa | 0 mm | - | - | - |
| 1777701748 | 4.44° C | 74% | 1017.5 hPa | 0 mm | - | - | - |
| 1777700848 | 5° C | 73% | 1017.4 hPa | 0 mm | - | - | - |
| 1777699948 | 5.56° C | 73% | 1017.3 hPa | 0 mm | - | - | - |
| 1777699048 | 5.56° C | 71% | 1017.3 hPa | 0 mm | - | - | - |
| 1777698148 | 6.11° C | 70% | 1017.2 hPa | 0 mm | - | - | - |
| 1777697248 | 6.67° C | 68% | 1017.1 hPa | 0 mm | - | - | - |
| 1777696348 | 7.22° C | 66% | 1017 hPa | 0 mm | - | - | - |
| 1777695448 | 7.22° C | 66% | 1016.9 hPa | 0 mm | - | - | - |
| 1777694548 | 7.78° C | 64% | 1016.8 hPa | 0 mm | - | - | - |
| 1777693648 | 7.78° C | 62% | 1016.9 hPa | 0 mm | - | - | - |
| 1777692748 | 7.78° C | 62% | 1016.7 hPa | 0 mm | - | - | - |
| 1777691848 | 8.33° C | 60% | 1016.7 hPa | 0 mm | - | - | - |
* Rain latest hour (hover to see other rain measurements)
** Current wind speed in m/s (hover to see current wind gust speed)